This is the latest recevied weather packets stored in our database for station/object SV6DBG-10. If no packets are shown the sender has not sent any weather packets the latest 10 day(s).
| Time | Temp. | Humidity | Pressure | Rain* | Wind** | Luminosity | Snow |
|---|---|---|---|---|---|---|---|
| 1777764538 | 7.22° C | 55% | 1021.1 hPa | - | - | - | - |
| 1777763637 | 6.67° C | 56% | 1021.4 hPa | - | - | - | - |
| 1777762737 | 7.22° C | 56% | 1021.4 hPa | - | - | - | - |
| 1777761837 | 7.22° C | 60% | 1021.6 hPa | - | - | - | - |
| 1777760937 | 7.22° C | 56% | 1021.6 hPa | - | - | - | - |
| 1777760037 | 8.33° C | 53% | 1021.5 hPa | - | - | - | - |
| 1777759137 | 8.33° C | 49% | 1021.4 hPa | - | - | - | - |
| 1777758237 | 8.33° C | 46% | 1021.5 hPa | - | - | - | - |
| 1777757336 | 8.89° C | 45% | 1021.6 hPa | - | - | - | - |
| 1777756436 | 8.33° C | 49% | 1021.8 hPa | - | - | - | - |
| 1777755536 | 8.89° C | 47% | 1021.8 hPa | - | - | - | - |
| 1777754636 | 9.44° C | 42% | 1021.7 hPa | - | - | - | - |
| 1777753735 | 10° C | 46% | 1021.8 hPa | - | - | - | - |
| 1777752835 | 10° C | 47% | 1021.6 hPa | - | - | - | - |
| 1777751934 | 10° C | 41% | 1021.9 hPa | - | - | - | - |
| 1777751034 | 10° C | 41% | 1021.6 hPa | - | - | - | - |
| 1777750134 | 10° C | 42% | 1021.4 hPa | - | - | - | - |
| 1777749234 | 10° C | 46% | 1021.2 hPa | - | - | - | - |
| 1777748334 | 10.56° C | 45% | 1021.1 hPa | - | - | - | - |
| 1777747434 | 11.11° C | 41% | 1021 hPa | - | - | - | - |
| 1777746533 | 11.11° C | 40% | 1020.9 hPa | - | - | - | - |
| 1777745633 | 11.67° C | 42% | 1020.7 hPa | - | - | - | - |
| 1777744733 | 11.67° C | 48% | 1020.4 hPa | - | - | - | - |
| 1777743833 | 12.22° C | 41% | 1020.2 hPa | - | - | - | - |
| 1777742933 | 12.22° C | 35% | 1020.2 hPa | - | - | - | - |
* Rain since midnight (hover to see other rain measurements)
** Current wind speed in m/s (hover to see current wind gust speed)